Change the Weather History Date:

Friday, November 16, 2012

  Actual Average Record
Temperature  
Mean Temperature 52 °F 49 °F  
Max Temperature 62 °F 64 °F 84 °F (1966)
Min Temperature 41 °F 34 °F 7 °F (1961)
Degree Days  
Heating Degree Days 13 16  
Month to date heating degree days 153 208  
Since 1 July heating degree days 280 382  
Cooling Degree Days 0 0  
Month to date cooling degree days 0 0  
Year to date cooling degree days 2356 1788  
Growing Degree Days 2 (Base 50)    
Moisture  
Dew Point 26 °F    
Average Humidity 38    
Maximum Humidity 54    
Minimum Humidity 22    
Precipitation  
Precipitation 0.00 in 0.02 in 1.19 in (1934)
Month to date precipitation 0.00 0.36  
Year to date precipitation 6.05 12.05  
Sea Level Pressure  
Sea Level Pressure 30.23 in    
Wind  
Wind Speed 5 mph (NW)    
Max Wind Speed 13 mph    
Max Gust Speed 16 mph    
Visibility 10 miles    
Events      
T = Trace of Precipitation, MM = Missing Value Source: NWS Daily Summary

Daily Weather History Graph

Daily Weather History Graph

Search for Another Location

Airport or City:

Trip Planner

Search our weather history database for the weather conditions in past years. The results will help you decide how hot, cold, wet, or windy it might be!

Date:

Astronomy

Nov. 16, 2012 Rise Set
Actual Time 6:30 AM MST 4:55 PM MST
Civil Twilight 6:04 AM MST 5:21 PM MST
Nautical Twilight 5:34 AM MST 5:51 PM MST
Astronomical Twilight 5:04 AM MST 6:20 PM MST
Moon 9:25 AM MST (11/16) 7:59 PM MST (11/16)
Length of Visible Light 11h 17m
Length of Day
10h 24m
Waxing Crescent, 12% of the Moon is Illuminated
Nov 16
Waxing Crescent
Nov 20
First Quarter
Nov 28
Full
Dec 6
Last Quarter
Dec 13
New

Hourly Weather History & Observations

Time (MST) Temp. Windchill Dew Point Humidity Pressure Visibility Wind Dir Wind Speed Gust Speed Precip Events Conditions
12:51 AM 42.1 °F 37.7 °F 19.0 °F 40% 30.26 in 10.0 mi NNW 6.9 mph - N/A   Clear
1:51 AM 43.0 °F 38.8 °F 19.0 °F 38% 30.26 in 10.0 mi NW 6.9 mph - N/A   Clear
2:51 AM 44.1 °F 40.8 °F 21.0 °F 40% 30.26 in 10.0 mi NW 5.8 mph - N/A   Clear
3:51 AM 43.0 °F 40.3 °F 21.9 °F 43% 30.25 in 10.0 mi North 4.6 mph - N/A   Clear
4:51 AM 41.0 °F 39.0 °F 21.9 °F 47% 30.27 in 10.0 mi NNE 3.5 mph - N/A   Clear
5:51 AM 41.0 °F 38.0 °F 21.9 °F 47% 30.27 in 10.0 mi North 4.6 mph - N/A   Clear
6:51 AM 42.1 °F 39.2 °F 23.0 °F 47% 30.30 in 10.0 mi North 4.6 mph - N/A   Clear
7:51 AM 44.1 °F 40.1 °F 24.1 °F 45% 30.32 in 10.0 mi North 6.9 mph - N/A   Clear
8:51 AM 46.9 °F - 25.0 °F 42% 30.31 in 10.0 mi NNE 6.9 mph - N/A   Clear
9:51 AM 52.0 °F - 25.0 °F 35% 30.30 in 10.0 mi NE 5.8 mph - N/A   Clear
10:51 AM 54.0 °F - 24.1 °F 31% 30.28 in 10.0 mi ENE 5.8 mph - N/A   Clear
11:51 AM 55.9 °F - 24.1 °F 29% 30.25 in 10.0 mi Calm Calm - N/A   Clear
12:51 PM 57.9 °F - 23.0 °F 26% 30.21 in 10.0 mi Calm Calm - N/A   Clear
1:51 PM 60.1 °F - 21.9 °F 23% 30.17 in 10.0 mi SSE 5.8 mph - N/A   Partly Cloudy
2:51 PM 61.0 °F - 27.0 °F 27% 30.15 in 10.0 mi SSE 12.7 mph - N/A   Clear
3:51 PM 61.0 °F - 30.0 °F 31% 30.15 in 10.0 mi South 10.4 mph - N/A   Mostly Cloudy
4:51 PM 55.9 °F - 30.0 °F 37% 30.16 in 10.0 mi South 3.5 mph - N/A   Partly Cloudy
5:51 PM 52.0 °F - 27.0 °F 38% 30.19 in 10.0 mi SW 5.8 mph - N/A   Mostly Cloudy
6:51 PM 51.1 °F - 28.9 °F 43% 30.20 in 10.0 mi SSW 8.1 mph - N/A   Mostly Cloudy
7:51 PM 51.1 °F - 32.0 °F 48% 30.19 in 10.0 mi SW 6.9 mph - N/A   Partly Cloudy
8:51 PM 48.0 °F - 32.0 °F 54% 30.19 in 10.0 mi SSW 5.8 mph - N/A   Clear
9:51 PM 46.0 °F 43.9 °F 30.9 °F 56% 30.19 in 10.0 mi SSW 4.6 mph - N/A   Clear
10:51 PM 46.9 °F - 30.9 °F 54% 30.17 in 10.0 mi Calm Calm - N/A   Clear
11:51 PM 43.0 °F - 28.9 °F 58% 30.18 in 10.0 mi Calm Calm - N/A   Clear